ASTRA 1G
1 25071U 97076A   03120.00000000  .00000122  00000-0  10000-3 0  4006
2 25071   0.0122 319.8851 0002995  65.1991 211.6329  1.00273184 19845
INMARSAT 3-F5
1 25153U 98006B   03120.93639050  .00000146  00000-0  10000-3 0  8826
2 25153   0.4625   4.7330 0003020   0.2826 215.6117  1.00276975 19218
HOT BIRD 4
1 25237U 98013A   03099.84635997  .00000087  00000-0  10000-3 0  3344
2 25237   0.0316 347.7932 0006645  69.4486  98.0254  1.00270260 19044
NOAA-15
1 25338U 98030A   03121.46581405  .00000229  00000-0  11752-3 0   983
2 25338  98.5425 141.6559 0011605 106.1625 254.0835 14.24279415258035
RESURS O1-N4
1 25394U 98043A   03120.95986678 +.00000167 +00000-0 +91667-4 0 05095
2 25394 098.6204 197.5281 0000433 256.0302 104.0828 14.23904636249696
TO-31
1 25396U 98043C   03120.94842882 -.00000043 +00000-0 +00000-0 0 08650
2 25396 098.6141 196.6096 0001702 300.0682 060.0329 14.23533725249686
GO-32
1 25397U 98043D   03120.92782127 +.00000074 +00000-0 +51969-4 0 01834
2 25397 098.6092 195.3800 0000710 351.2422 008.8741 14.22976596249649
ASTRA 2A
1 25462U 98050A   03120.15423332  .00000000  00000-0  10000-3 0  5439
2 25462   0.0371 333.9509 0010288 336.3054 351.2120  1.00271596 17145
EUTELSAT W2
1 25491U 98056A   03119.97086042  .00000106  00000-0  00000+0 0  6037
2 25491   0.0511  64.0287 0003370 350.8417 168.1241  1.00273013 16757
HOT BIRD 5
1 25495U 98057A   03120.93639050  .00000150  00000-0  00000+0 0  5143
2 25495   0.0264  80.8669 0004676 313.2391 187.2899  1.00276395 16735
SO-33
1 25509U 98061B   03121.12511952  .00000656  00000-0  11742-3 0  8352
2 25509  31.4285 109.0540 0357848 207.7899 150.3207 14.27495759235542
PO-34
1 25520U 98064B   03120.35306153  .00003028  00000-0  15116-3 0  6653
2 25520  28.4581 112.2398 0005668  43.0532 317.0506 15.14247904248320
ISS (ZARYA)
1 25544U 98067A   03121.45623706  .00025239  00000-0  32578-3 0  9506
2 25544  51.6326 255.0340 0006397  75.2501  50.5288 15.58794902253715
ORSTED
1 25635U 99008B   03120.92671613  .00000834  00000-0  21722-3 0  8933
2 25635  96.4624  90.1450 0146335 102.2909 259.4725 14.44945745220249
SUNSAT
1 25636U 99008C   03120.93295417 +.00000386 +00000-0 +10828-3 0 07104
2 25636 096.4648 088.6605 0150188 109.3721 252.3779 14.43007400220103
UO-36
1 25693U 99021A   03121.48425445  .00000447  00000-0  83668-4 0  9315
2 25693  64.5582 150.6579 0026756 311.6920  48.1893 14.76465551216879
FENGYUN 1C
1 25730U 99025A   03120.95274522 +.00000051 +00000-0 +51193-4 0 08251
2 25730 098.6271 142.6566 0014718 155.5782 204.6096 14.11742198204704
ASTRA 1H
1 25785U 99033A   03120.00000000  .00000122  00000-0  10000-3 0  3800
2 25785   0.0122 319.8851 0002995  65.1991 211.6491  1.00273184 14202
TERRA
1 25994U 99068A   03121.27780028 -.00001325  00000-0 -28405-3 0  9313
2 25994  98.1875 196.3415 0001544 102.8279 257.2578 14.57140420179114
WO-39
1 26061U 00004A   03121.32166205  .00000718  00000-0  25538-3 0  8251
2 26061 100.1940 191.6590 0035660  76.8580 283.6577 14.37915935170842
OO-38 OPAL
1 26063U 00004C   03121.20723332  .00000200  00000-0  89214-4 0  7741
2 26063 100.1960 188.7302 0037438  84.9118 275.6332 14.35513599170664
AO-37
1 26065U 00004E   03120.88386301  .00000238  00000-0  10235-3 0  7935
2 26065 100.1984 188.5175 0037975  87.3459 273.2065 14.35543870170616
GOES 11
1 26352U 00022A   03121.40731536 -.00000024  00000-0  10000-3 0  1362
2 26352   0.3193  98.2571 0002105 261.1626 252.1366  1.00273831 10955
EUTELSAT W4
1 26369U 00028A   03119.96477876  .00000157  00000-0  00000+0 0  3787
2 26369   0.0419  31.7962 0002694 358.2890 210.8205  1.00271882 10756
FENGYUN 2B
1 26382U 00032A   03118.64196970 -.00000336 +00000-0 +00000-0 0 08409
2 26382 000.3978 291.9920 0001049 251.7802 008.2329 01.00279869010402
EUTELSAT W1
1 26487U 00052A   03119.99672207  .00000070  00000-0  10000-3 0  3939
2 26487   0.0314 104.9335 0004394 281.5204 199.8611  1.00274303  9727
ASTRA 2B
1 26494U 00054A   03120.55183528  .00000000  00000-0  10000-3 0  2646
2 26494   0.0073  24.7211 0018267  42.8519  17.3510  1.00276812  9639
NOAA-16
1 26536U 00055A   03121.08434497 -.00000093  00000-0 -26856-4 0  3100
2 26536  98.9119  68.8839 0011390 103.0276 257.2168 14.11944734134249
SO-41
1 26545U 00057A   03121.35122469  .00001207  00000-0  17865-3 0  4460
2 26545  64.5595 171.2699 0046631 227.2963 132.4174 14.79168716139830
UNISAT
1 26547U 00057C   03120.95977852  .00002051  00000-0  28251-3 0  4662
2 26547  64.5573 174.4077 0053783 228.6797 130.9687 14.80050695139750
MO-46
1 26548U 00057D   03120.58646083  .00001514  00000-0  20844-3 0  4495
2 26548  64.5571 165.7101 0039777 228.2242 131.5459 14.81508750139887
SO-42
1 26549U 00057E   03120.62720844 +.00001246 +00000-0 +18784-3 0 07382
2 26549 064.5499 177.9712 0051251 226.8530 132.8276 14.78096221139641
AO-40
1 26609U 00072B   03120.91111259 -.00000382  00000-0  10000-3 0  3270
2 26609   8.6079  51.3327 7957274 169.5162 234.2012  1.25597080 11482
GOES 12
1 26871U 01031A   03120.32416081 -.00000248  00000-0  00000+0 0  9433
2 26871   0.1556 272.9132 0003679 328.2783  18.7963  1.00274520  6547
NO-44 (PCSAT)
1 26931U 01043C   03120.97804291 +.00000281 +00000-0 +14304-3 0 04783
2 26931 067.0458 071.7692 0006016 275.1699 084.8714 14.29155777082557
NO-45 SAPPHIRE
1 26932U 01043D   03121.22736217  .00000149  00000-0  90700-4 0  4570
2 26932  67.0523  70.8165 0003995 271.1541  88.9099 14.29322906 82619
ENVISAT
1 27386U 02009A   03121.36149079  .00000214  00000-0  95705-4 0   148
2 27386  98.5443 188.8850 0000915  86.1068 274.0221 14.32252513 61028
IDEFIX/ARIANE 42P
1 27422U 02021B   03121.56251488  .00000283  00000-0  13176-3 0  2939
2 27422  98.6844 200.3920 0011715 302.4651  57.5398 14.28010348 51734
FENGYUN 1D
1 27431U 02024B   03121.23630758  .00000120  00000-0  93762-4 0  2735
2 27431  98.7537 168.2496 0014286 282.5872  77.3701 14.09186309 49468
NOAA-17
1 27453U 02032A   03121.41032923  .00000323  00000-0  16168-3 0  3941
2 27453  98.7448 192.1980 0012338 144.9997 215.1994 14.23339032 44181
HOT BIRD 6
1 27499U 02038A   03104.14052927  .00000000  00000-0  10000-3 0   739
2 27499   0.0313 303.0505 0012771 138.1476 184.1937  1.00273600  2378
AO-49 RUBIN 2
1 27605U 02058A   03120.67120439 +.00000806 +00000-0 +14994-3 0 01236
2 27605 064.5559 341.3169 0034984 080.6220 279.8841 14.71483144019274
SO-50
1 27607U 02058C   03120.73548977  .00001208  00000-0  22058-3 0  1143
2 27607  64.5506 342.0553 0036517  76.9693 283.5474 14.70065485 19265
SOYUZ-TMA 2
1 27781U 03016A   03120.81685961  .00026685  00000-0  34442-3 0   173
2 27781  51.6322 258.2456 0006406  72.5116  62.9424 15.58763019   727
